{"data":{"norad_id":68729,"epoch":"2026-05-25T04:00:03.998880Z","epoch_age_seconds":60939,"freshness":"FRESH","line1":"1 68729U 26082B   26145.16671295 -.01900162  00000+0 -27181-1 0  9995","line2":"2 68729  97.2852   8.7956 0001851  86.1935  45.7283 15.59458601  5883","mean_motion":15.59458601,"eccentricity":0.0001851,"inclination_deg":97.2852,"raan_deg":8.7956,"arg_perigee_deg":86.1935,"mean_anomaly_deg":45.7283,"bstar":-0.027181,"rev_number":588,"period_min":92.33973887326,"perigee_km":387.97027741989,"apogee_km":390.4755540607,"semimajor_km":6767.3599157403,"source":"CELESTRAK","updated_at":"2026-05-25T13:38:22.004446Z"}}